MDT,Max TemperatureF,Mean TemperatureF,Min TemperatureF,Max Dew PointF,MeanDew PointF,Min DewpointF,Max Humidity, Mean Humidity, Min Humidity, Max Sea Level PressureIn, Mean Sea Level PressureIn, Min Sea Level PressureIn, Max VisibilityMiles, Mean VisibilityMiles, Min VisibilityMiles, Max Wind SpeedMPH, Mean Wind SpeedMPH, Max Gust SpeedMPH,PrecipitationIn, CloudCover, Events, WindDirDegrees
2013-3-1,37,24,10,21,14,-2,92,63,48,30.49,30.41,30.35,10,10,10,20,6,24,0.00,3,,260
2013-3-2,35,19,3,27,11,-9,100,73,39,30.58,30.46,30.32,10,10,10,6,2,,0.00,0,,64
2013-3-3,44,24,5,28,16,-4,100,72,37,30.30,30.07,29.90,10,9,2,15,3,20,0.00,4,,118
2013-3-4,41,29,15,32,23,3,93,72,46,30.23,29.95,29.85,10,8,1,24,5,32,0.08,5,,302
2013-3-5,26,12,-2,9,2,-13,100,62,43,30.45,30.33,30.26,10,10,10,9,5,,0.00,0,,49
2013-3-6,33,16,-2,18,6,-9,92,68,41,30.31,30.18,30.05,10,10,10,8,3,,0.00,0,,62
2013-3-7,42,24,6,21,13,-6,100,65,39,30.17,30.10,30.03,10,10,10,8,3,,0.00,0,,66
2013-3-8,41,29,17,27,18,9,93,66,42,30.07,29.90,29.74,10,10,1,12,3,21,0.00,5,,83
2013-3-9,30,24,17,27,21,12,93,77,60,30.00,29.78,29.67,10,8,0,22,7,30,0.00,6,,243
2013-3-10,33,18,3,16,10,-8,100,65,41,30.26,30.15,30.01,10,10,10,20,4,26,0.00,0,,237
2013-3-11,39,21,3,19,11,-4,92,63,33,30.26,30.20,30.11,10,10,10,16,4,25,0.00,1,,92
2013-3-12,46,32,17,27,21,10,93,60,39,30.38,30.28,30.19,10,10,10,15,4,18,0.00,2,,245
2013-3-13,50,32,15,28,20,10,86,62,35,30.49,30.44,30.38,10,10,10,14,2,,0.00,0,,49
2013-3-14,51,35,19,27,21,14,86,61,35,30.56,30.48,30.40,10,10,10,9,2,,0.00,0,,56
2013-3-15,57,39,21,28,22,16,80,59,31,30.43,30.29,30.13,10,10,10,7,2,,0.00,0,,68
2013-3-16,44,35,26,34,26,19,81,73,56,30.13,30.06,29.97,10,9,1,15,2,25,0.04,5,Thunderstorm,243
2013-3-17,48,38,28,34,22,9,86,62,27,30.00,29.87,29.74,10,9,0,33,4,47,0.05,5,,291
2013-3-18,42,34,26,16,10,7,51,38,27,30.07,30.00,29.93,10,10,10,25,10,32,0.00,3,,259
2013-3-19,44,35,26,18,9,-2,69,38,15,30.30,30.17,30.06,10,10,10,16,4,21,0.00,0,,309
2013-3-20,42,28,15,28,13,0,75,53,30,30.32,30.19,29.99,10,10,10,14,4,21,0.00,2,,11
2013-3-21,42,33,24,32,23,10,93,67,27,29.98,29.84,29.74,10,8,0,28,5,40,0.13,4,,285
2013-3-22,42,27,12,16,8,3,73,48,22,29.93,29.79,29.64,10,10,10,28,7,38,0.00,3,,320
2013-3-23,28,20,10,16,6,-6,86,57,30,30.07,29.87,29.75,10,10,5,21,10,25,0.00,5,,255
2013-3-24,28,14,1,9,0,-9,73,54,29,30.12,30.05,29.96,10,10,4,21,8,33,0.00,3,,335
2013-3-25,35,18,1,7,-2,-11,72,43,22,30.22,30.17,30.12,10,10,10,13,8,18,0.00,0,,344
2013-3-26,50,32,15,19,10,0,68,42,25,30.21,30.12,30.01,10,10,10,20,6,31,0.00,2,,22
2013-3-27,53,40,26,21,17,10,74,43,18,30.18,30.10,30.04,10,10,10,21,7,28,0.00,1,,311
2013-3-28,53,38,23,25,20,18,80,52,24,30.25,30.21,30.16,10,10,10,12,2,17,0.00,0,,31
2013-3-29,55,40,26,25,22,19,80,54,25,30.32,30.27,30.22,10,10,9,20,3,29,0.00,3,,357
2013-3-30,57,40,24,27,22,16,86,51,21,30.33,30.26,30.17,10,10,10,18,4,25,0.00,4,,277
2013-3-31,57,40,24,25,19,9,80,48,14,30.28,30.21,30.12,10,10,10,14,4,22,0.00,0,,274